Temperature
25 25 25 24 24 25 24 24 24 24 24 24 25 24 24 24 23 23 22 21 21 20 19 19 19 18 18 18 18 17 17 17 17 17 16 16 16 16 15 15 15 15 15 15
24 24 24 24 25 25 24 25 24 24 24 26 25 25 24 24 23 23 22 21 21 20 20 19 19 19 18 18 18 18 17 17 17 17 16 16 16 16 16 15 15 15 15 15
23 24 24 23 25 25 25 25 25 24 24 25 25 24 24 24 23 23 22 21 21 20 20 20 19 19 19 18 18 18 17 17 17 17 17 16 16 16 15 15 15 15 15 15
22 23 21 24 26 26 25 25 26 25 25 25 25 25 24 24 23 22 22 21 21 20 20 20 19 19 19 18 18 18 17 17 17 17 16 16 16 16 15 15 15 15 15 15
22 21 22 24 25 25 25 24 25 25 25 25 25 25 24 23 23 22 22 21 21 20 20 20 19 19 19 18 18 18 17 17 17 17 16 16 16 15 15 15 15 15 15 15
21 21 21 23 25 26 25 23 25 25 25 25 24 23 22 23 22 22 22 21 21 21 20 20 19 19 19 18 18 18 17 17 17 17 16 16 16 15 15 15 15 15 15 14
20 20 22 24 25 25 23 23 24 24 24 24 23 23 23 22 22 21 21 21 21 20 20 20 19 19 19 18 18 18 17 17 17 17 16 16 16 15 15 15 15 14 14 14
21 20 21 23 24 23 23 24 24 24 23 23 23 22 22 22 21 21 20 20 20 20 20 19 19 19 19 18 18 18 17 17 17 17 16 16 16 15 15 15 15 14 14 14
22 21 22 23 23 23 23 23 23 23 22 22 22 22 21 21 21 20 20 20 19 19 19 19 19 19 19 18 18 18 17 17 17 17 16 16 16 15 15 15 14 14 14 14
22 22 22 22 22 22 22 22 22 21 22 21 21 21 21 21 20 20 20 19 19 19 19 19 18 18 18 18 18 17 17 17 17 16 16 16 16 15 15 15 14 14 14 14
21 22 22 22 21 21 21 21 21 20 20 21 20 20 20 20 20 19 19 19 19 18 18 18 18 18 18 18 17 17 17 17 16 16 16 16 15 15 15 14 14 14 14 14
20 21 21 21 21 20 20 20 20 20 20 20 20 19 19 19 19 19 19 18 18 18 18 18 18 18 18 17 17 17 16 16 16 16 16 15 15 15 14 14 14 14 14 14
20 20 20 20 20 19 19 19 19 19 19 19 19 19 19 19 18 18 18 18 18 18 18 17 17 17 17 17 17 17 16 16 16 16 16 15 15 15 14 14 14 14 13 13
19 19 19 19 19 19 18 19 19 19 18 18 18 18 18 18 18 18 18 18 18 17 17 17 17 17 17 17 16 16 16 16 16 16 16 15 15 15 14 14 14 14 13 13
18 18 18 18 18 18 18 18 18 18 18 17 17 17 17 17 17 17 17 17 17 17 17 17 17 17 17 16 16 16 16 16 15 15 15 15 15 14 14 14 13 13 13 13
17 17 17 17 17 17 17 17 17 17 17 17 17 17 17 17 17 17 17 17 16 16 16 16 16 16 16 16 16 15 15 15 15 15 15 14 14 14 13 13 13 13 13 13
17 17 16 16 16 16 16 16 16 16 16 16 16 16 16 16 16 16 16 16 16 16 16 16 16 16 16 16 15 15 15 15 14 14 14 14 14 13 13 13 13 13 12 12
16 16 16 16 16 16 15 15 15 15 15 15 15 16 16 16 16 16 15 15 15 15 15 15 15 15 15 15 15 15 14 14 14 14 13 13 13 13 13 12 12 12 12 12
15 15 15 15 15 15 14 14 14 14 14 14 15 15 15 15 15 15 15 15 15 15 15 15 15 15 15 15 14 14 14 14 13 13 13 12 12 12 12 12 12 12 11 11
14 14 14 14 14 14 14 14 14 14 14 14 14 14 14 14 14 14 14 14 14 14 14 14 14 14 14 14 14 14 13 13 13 12 12 12 12 11 11 11 11 11 11 10
13 13 13 13 13 13 13 13 13 13 13 13 13 13 13 13 13 13 13 13 14 14 14 14 14 13 13 13 13 13 13 12 12 12 12 12 11 11 11 11 10 10 10 10
12 12 12 12 12 12 12 12 12 12 13 13 13 13 13 13 13 13 13 13 13 13 13 13 13 13 13 12 12 12 12 12 12 12 11 11 11 11 10 10 10 10 9 9
12 12 12 12 12 12 12 12 12 12 12 12 12 12 12 12 12 12 12 12 12 12 12 12 12 12 12 12 12 12 12 11 11 11 11 11 10 10 10 9 9 9 9 9
11 11 11 11 11 11 11 11 11 11 11 11 11 11 11 11 11 11 11 12 12 12 12 12 12 12 12 11 11 11 11 11 11 10 10 10 10 9 9 9 9 9 9 8
10 10 10 10 10 10 10 10 10 10 10 10 10 11 11 11 11 11 11 11 11 11 11 11 11 11 11 11 11 10 10 10 10 10 10 9 9 9 9 8 8 8 8 8
10 10 10 10 10 9 9 9 9 9 9 9 10 10 10 10 10 10 10 10 10 10 10 10 10 10 10 10 10 10 10 10 10 9 9 9 9 8 8 8 8 8 7 7
9 9 9 9 9 9 9 9 9 9 9 9 9 9 9 9 9 10 10 10 10 10 10 10 10 9 9 9 9 9 9 9 9 9 8 8 8 8 7 7 7 7 7 7
Wind_Speed
8 5 6 6 8 8 8 7 5 4 2 1 1 3 4 6 6 6 7 8 9 9 9 9 9 8 9 9 9 9 9 8 8 7 7 6 5 5 4 4 4 3 3 3
10 9 9 10 10 9 9 8 8 6 4 2 2 2 2 5 6 6 6 7 8 9 9 10 10 9 8 9 9 9 9 9 8 7 7 7 6 5 4 4 3 3 3 3
9 10 10 11 10 9 9 8 7 6 3 1 2 2 2 4 5 6 6 6 7 8 8 9 9 9 9 9 9 10 10 9 9 8 8 7 7 6 5 5 4 3 3 3
8 9 10 5 4 6 7 7 6 4 2 2 2 2 3 3 5 5 5 6 6 6 7 7 8 9 8 9 9 9 9 9 9 9 8 7 7 6 6 5 5 4 4 3
7 9 8 6 5 5 6 6 4 4 2 2 3 3 3 4 4 4 5 5 5 5 6 6 7 9 9 9 9 8 8 9 9 9 9 8 7 7 6 5 5 5 4 4
7 8 7 4 3 2 4 6 3 2 2 1 2 3 2 3 4 4 4 4 4 5 5 6 6 8 8 8 9 9 9 9 9 9 9 8 8 7 5 5 5 5 4 4
10 9 6 3 2 2 5 1 2 2 1 1 1 1 2 3 4 4 4 4 4 4 4 5 5 7 8 8 8 8 8 8 8 9 9 8 7 6 6 5 5 5 4 4
10 10 7 2 3 3 0 2 2 3 3 2 2 3 3 3 4 4 4 4 5 4 3 4 5 6 7 7 7 8 9 8 8 8 8 8 7 6 6 6 6 5 4 4
6 4 3 2 1 2 3 3 3 3 3 2 2 2 2 3 3 3 3 3 3 4 4 4 4 5 6 5 7 8 9 9 8 8 7 7 7 7 6 5 5 5 4 4
6 4 4 3 2 1 2 3 4 4 3 2 1 1 1 1 2 3 3 3 3 4 4 3 3 5 5 5 6 8 9 9 8 8 7 7 6 6 5 5 5 5 5 4
7 4 2 2 1 1 1 2 2 2 3 2 1 1 1 0 2 2 2 2 3 3 3 4 3 4 6 6 6 7 7 8 8 7 7 6 5 3 4 3 5 5 4 4
5 4 3 2 1 1 2 3 2 2 1 2 1 1 1 0 1 2 2 3 3 3 3 3 4 4 5 6 7 7 7 7 6 6 6 6 6 4 4 3 5 6 6 6
7 5 4 4 3 2 3 3 3 2 1 1 2 1 1 0 1 2 2 3 3 3 3 3 3 3 5 5 6 6 6 6 6 6 7 7 7 6 4 2 3 4 5 7
5 4 4 3 3 2 3 4 3 2 1 1 2 1 1 1 1 2 2 3 3 3 3 3 3 3 3 4 5 5 5 6 6 5 6 6 6 6 6 6 4 2 2 6
6 5 5 4 3 3 3 3 3 1 1 2 2 1 1 2 2 2 2 3 3 3 3 3 3 3 3 4 5 5 5 5 5 5 5 5 5 5 5 6 5 5 3 3
7 5 4 4 4 3 4 3 2 1 1 2 2 2 2 2 2 2 2 3 4 4 4 4 4 3 4 4 4 4 4 6 6 5 5 5 5 5 5 5 6 6 5 5
6 6 5 5 4 4 3 3 2 2 2 2 3 2 2 2 2 2 3 3 4 4 4 4 4 4 4 4 4 4 4 5 6 5 5 5 5 5 5 5 5 5 5 6
5 5 5 4 4 3 2 2 2 2 2 4 3 2 2 2 3 3 3 2 2 2 2 2 3 3 4 4 4 4 5 5 4 4 4 4 4 4 4 5 5 5 4 5
4 4 3 3 3 2 2 2 2 2 3 3 2 3 3 3 3 3 2 2 3 3 2 2 4 3 3 4 4 3 4 5 4 3 3 5 5 4 4 4 4 4 5 5
3 3 3 2 2 2 3 3 3 3 3 3 3 2 3 3 3 3 3 3 3 2 3 3 3 3 3 3 4 3 3 4 5 4 4 4 4 4 4 4 4 4 4 5
2 2 2 3 2 2 3 3 2 3 3 3 2 3 3 3 2 3 3 3 2 2 3 5 3 2 2 2 3 3 4 4 5 4 4 4 4 4 4 4 4 4 4 4
1 1 1 2 2 2 2 2 2 3 2 2 2 2 2 2 2 3 2 2 2 4 3 3 2 3 2 2 3 3 3 4 4 4 4 4 4 4 4 4 4 4 4 4
1 1 1 1 1 2 2 2 2 2 2 2 2 2 2 2 2 2 2 1 3 4 3 3 3 4 2 2 3 3 3 3 3 3 3 3 4 4 4 4 4 4 4 4
1 1 1 1 1 1 2 1 1 2 2 2 2 1 1 1 1 1 1 3 3 3 2 4 5 4 2 2 3 3 3 3 3 3 3 3 3 3 4 4 4 4 4 5
2 2 1 1 1 1 2 1 1 1 2 2 2 2 1 1 1 1 1 2 4 3 2 4 5 4 2 2 3 3 3 3 3 3 3 3 3 3 3 3 4 4 4 4
2 2 1 1 1 1 1 1 1 1 1 2 2 1 1 0 0 1 1 3 3 3 3 3 3 3 2 2 2 3 3 4 3 3 3 3 3 3 3 3 4 3 4 4
2 1 1 1 1 1 1 1 2 2 2 2 2 2 1 0 1 1 2 3 3 3 3 3 3 2 2 2 2 2 3 3 3 3 3 3 3 3 3 3 3 3 4 4
Wind_Direction
266 262 255 243 237 239 249 257 258 261 252 222 147 138 146 144 139 144 150 156 161 167 171 172 176 179 178 175 174 171 166 170 172 169 163 162 161 163 167 163 161 157 151 138
258 248 249 253 247 237 242 250 253 258 258 201 148 121 140 142 148 159 160 163 168 174 174 176 178 178 178 176 175 171 169 172 168 165 162 164 166 170 171 164 163 163 160 149
256 251 251 248 241 240 238 242 247 246 246 148 150 148 154 154 164 164 163 166 174 180 177 181 180 176 176 178 176 172 169 169 166 166 166 171 174 172 171 166 170 170 168 157
253 249 247 245 220 235 248 249 244 240 240 211 181 150 159 157 148 151 158 163 173 178 174 178 177 174 173 172 173 172 169 167 166 170 170 170 171 172 173 171 171 174 180 175
249 248 250 240 235 228 243 253 241 227 225 211 189 198 159 128 132 144 150 158 168 175 170 171 175 171 169 170 171 169 170 171 172 171 166 168 173 173 174 176 173 174 180 179
241 246 247 222 215 218 250 249 222 202 189 199 210 206 145 120 118 134 140 147 156 166 166 168 169 165 166 171 173 175 174 175 171 166 163 169 172 169 168 173 175 171 176 180
238 246 250 208 194 197 231 220 105 124 117 96 357 66 119 113 117 117 126 135 143 155 167 172 168 165 168 173 180 173 166 165 162 161 163 165 165 165 165 167 168 174 181 188
227 235 233 168 191 223 358 46 46 69 67 57 59 73 88 98 105 117 124 133 150 158 163 168 167 173 177 178 172 158 155 155 160 161 165 167 165 170 171 169 173 182 182 188
223 219 146 148 129 41 3 359 16 35 56 49 57 74 87 110 119 125 131 137 145 152 157 169 173 179 179 170 158 154 155 159 163 162 161 162 165 170 173 172 175 182 182 189
242 209 181 173 113 70 3 358 11 13 6 40 33 41 60 119 136 140 148 152 148 148 156 168 177 178 172 162 156 157 162 164 165 164 164 166 165 169 174 180 181 185 189 188
257 239 213 199 197 293 345 327 345 360 344 3 30 358 341 168 152 149 149 149 157 162 165 173 184 178 166 162 163 166 167 165 167 166 163 162 155 155 175 174 177 179 184 176
256 273 279 253 228 224 273 286 295 300 322 341 337 322 313 277 158 152 158 159 163 163 164 182 185 179 171 171 171 172 172 170 167 164 160 157 149 129 84 119 133 146 151 152
271 285 294 289 296 313 298 290 291 295 307 309 311 288 266 268 188 160 167 169 171 179 184 188 185 178 175 173 174 178 173 168 164 166 164 163 164 163 156 122 105 122 147 152
272 285 281 273 280 294 305 298 280 274 290 310 302 286 250 244 229 192 189 186 180 178 185 183 176 181 180 173 174 182 173 166 162 163 163 167 171 171 170 167 164 157 157 160
259 255 254 258 270 274 279 276 260 259 305 312 308 296 260 233 220 219 200 184 169 174 183 179 182 190 186 176 177 178 166 163 162 162 165 170 171 172 173 174 168 160 145 149
256 253 246 241 243 250 256 253 249 245 285 305 302 289 282 265 226 221 202 186 186 194 193 188 191 195 184 173 174 169 160 160 162 165 170 172 173 176 179 176 170 168 167 165
241 235 234 237 232 238 247 245 251 251 273 287 287 283 276 271 247 224 212 208 209 202 197 192 185 180 174 172 175 167 161 165 167 172 175 175 177 181 179 174 174 171 168 165
233 232 232 237 236 237 240 252 267 280 284 287 288 281 249 236 235 230 218 213 208 201 206 186 160 164 175 176 180 169 166 171 180 178 176 177 179 179 176 173 173 168 161 163
232 232 234 237 235 233 241 253 267 271 285 286 287 278 268 253 239 236 218 203 200 207 218 165 153 159 172 177 173 163 164 165 174 178 174 177 184 183 177 172 167 165 161 160
233 233 225 212 216 231 243 249 256 263 272 266 269 274 270 258 234 225 218 211 213 209 169 149 156 170 178 168 157 167 171 171 178 186 180 176 178 178 173 170 167 166 165 168
232 213 205 206 214 227 238 248 253 269 277 260 254 255 261 257 224 213 210 212 200 141 149 151 157 153 165 176 174 180 186 185 183 182 179 178 178 178 177 172 168 169 172 171
229 214 218 214 217 231 239 247 261 264 261 266 276 268 257 246 228 221 219 198 158 142 152 165 159 158 171 194 193 187 190 191 184 178 175 179 179 180 180 176 172 170 167 163
249 232 221 228 236 242 244 243 258 269 258 261 260 247 239 239 226 204 207 159 149 152 159 169 161 159 172 202 194 190 188 187 181 175 175 179 181 179 175 173 172 167 163 160
283 270 245 242 247 241 241 246 262 280 283 284 280 263 228 225 275 287 184 150 155 161 163 158 155 166 186 211 189 186 188 184 172 166 165 165 171 170 168 167 167 164 161 158
301 295 283 258 255 257 261 263 268 294 295 293 289 285 263 224 237 244 170 155 150 150 153 160 165 180 208 215 192 185 181 177 166 162 163 164 165 166 167 167 166 162 160 159
309 308 282 267 262 259 262 263 259 260 274 279 277 277 280 272 209 179 160 161 159 160 165 171 182 196 216 206 187 177 167 162 159 161 162 158 153 155 160 159 158 160 160 159
286 284 272 272 292 280 269 262 260 265 265 264 274 279 267 220 189 182 172 169 171 178 175 171 179 194 193 172 150 147 150 148 148 150 152 152 155 160 161 161 160 157 158 156
Height
1483 1482 1484 1486 1487 1488 1490 1491 1497 1495 1493 1490 1488 1489 1491 1494 1496 1499 1501 1504 1506 1509 1512 1515 1518 1521 1523 1526 1529 1532 1534 1537 1539 1541 1543 1545 1547 1549 1551 1552 1554 1555 1556 1556
1485 1482 1482 1485 1483 1484 1486 1486 1487 1489 1489 1484 1486 1488 1490 1492 1495 1497 1500 1502 1505 1508 1510 1513 1515 1518 1521 1524 1527 1529 1532 1534 1537 1539 1541 1543 1545 1547 1549 1551 1552 1553 1554 1555
1490 1482 1482 1488 1480 1480 1481 1480 1483 1488 1486 1483 1485 1487 1490 1491 1493 1496 1498 1500 1503 1505 1508 1510 1513 1515 1518 1521 1524 1527 1529 1531 1534 1536 1538 1540 1543 1545 1547 1548 1550 1551 1553 1554
1489 1489 1500 1482 1470 1473 1476 1477 1476 1478 1480 1481 1484 1486 1488 1489 1492 1494 1497 1499 1501 1503 1506 1508 1511 1513 1516 1519 1521 1524 1526 1529 1531 1533 1536 1538 1540 1542 1544 1546 1548 1549 1551 1552
1490 1493 1487 1476 1470 1471 1476 1477 1474 1476 1478 1480 1482 1484 1486 1488 1490 1493 1495 1497 1499 1501 1504 1506 1509 1511 1514 1516 1519 1522 1524 1526 1528 1530 1533 1535 1537 1539 1541 1543 1545 1547 1548 1550
1488 1494 1494 1478 1469 1469 1474 1480 1474 1475 1477 1479 1481 1485 1488 1488 1489 1491 1493 1496 1498 1500 1502 1504 1506 1509 1511 1514 1516 1518 1521 1523 1525 1527 1530 1532 1534 1536 1538 1541 1543 1544 1546 1547
1486 1489 1480 1469 1467 1470 1484 1482 1474 1475 1477 1479 1481 1484 1486 1487 1488 1490 1492 1494 1496 1498 1500 1502 1504 1507 1509 1511 1514 1516 1518 1521 1523 1525 1527 1529 1532 1534 1536 1538 1540 1542 1543 1545
1480 1486 1483 1468 1468 1473 1475 1473 1474 1475 1477 1479 1481 1483 1484 1486 1487 1489 1491 1492 1494 1496 1498 1500 1502 1504 1506 1508 1511 1513 1516 1518 1521 1523 1525 1527 1529 1531 1534 1535 1537 1539 1540 1542
1469 1473 1468 1468 1469 1472 1473 1474 1475 1477 1478 1480 1481 1483 1484 1485 1487 1488 1490 1491 1493 1495 1496 1498 1500 1502 1504 1506 1508 1511 1513 1515 1518 1520 1522 1524 1527 1529 1531 1533 1534 1536 1537 1539
1463 1463 1465 1467 1469 1471 1473 1475 1476 1477 1479 1480 1481 1482 1483 1485 1486 1487 1489 1490 1491 1493 1495 1496 1498 1500 1502 1504 1506 1508 1510 1512 1515 1517 1520 1522 1524 1526 1528 1529 1531 1532 1534 1535
1462 1462 1464 1466 1468 1471 1473 1474 1476 1477 1478 1479 1480 1481 1483 1483 1484 1486 1487 1488 1490 1491 1493 1494 1496 1497 1499 1501 1503 1505 1508 1510 1512 1514 1516 1519 1521 1522 1524 1526 1527 1529 1531 1532
1465 1463 1464 1465 1467 1470 1472 1473 1475 1476 1477 1478 1479 1480 1481 1482 1483 1484 1485 1486 1488 1489 1491 1492 1493 1495 1497 1499 1501 1503 1505 1507 1509 1511 1513 1515 1517 1519 1521 1523 1525 1526 1528 1529
1462 1463 1464 1465 1466 1468 1470 1472 1473 1474 1475 1476 1478 1479 1479 1480 1481 1482 1483 1484 1485 1487 1488 1490 1491 1492 1494 1496 1498 1500 1502 1504 1506 1508 1510 1512 1513 1515 1517 1519 1521 1523 1524 1525
1460 1461 1462 1464 1466 1467 1468 1470 1471 1472 1473 1474 1475 1476 1477 1477 1478 1480 1481 1482 1483 1484 1486 1487 1488 1490 1491 1493 1495 1497 1499 1501 1503 1504 1506 1508 1510 1512 1513 1515 1516 1518 1520 1521
1458 1460 1461 1463 1464 1466 1467 1468 1469 1470 1471 1472 1473 1474 1474 1475 1475 1477 1478 1479 1481 1482 1483 1484 1486 1487 1489 1490 1492 1494 1496 1498 1500 1501 1503 1505 1507 1508 1510 1511 1513 1514 1516 1517
1456 1457 1459 1460 1462 1464 1465 1466 1467 1468 1469 1469 1470 1471 1472 1472 1473 1474 1475 1476 1478 1479 1480 1481 1482 1484 1486 1487 1489 1491 1493 1494 1496 1498 1500 1501 1503 1504 1506 1507 1509 1510 1511 1513
1453 1454 1456 1458 1459 1461 1462 1463 1464 1465 1466 1467 1468 1468 1469 1469 1470 1471 1472 1473 1474 1475 1477 1478 1479 1481 1482 1484 1485 1487 1489 1491 1493 1495 1496 1498 1499 1501 1502 1504 1505 1506 1508 1509
1450 1451 1453 1455 1456 1458 1459 1461 1462 1463 1464 1465 1465 1465 1465 1466 1466 1467 1468 1470 1471 1472 1473 1475 1476 1477 1479 1480 1482 1483 1485 1487 1489 1491 1493 1494 1496 1497 1499 1500 1501 1503 1504 1506
1447 1448 1450 1451 1453 1455 1457 1458 1459 1460 1461 1461 1461 1461 1462 1462 1463 1464 1465 1466 1467 1468 1469 1471 1473 1474 1475 1477 1478 1480 1482 1483 1485 1487 1489 1491 1493 1494 1495 1496 1497 1498 1500 1501
1444 1445 1447 1448 1450 1452 1454 1455 1456 1457 1457 1458 1458 1458 1459 1459 1460 1461 1461 1462 1463 1464 1466 1467 1469 1470 1472 1473 1475 1476 1478 1480 1481 1483 1485 1487 1488 1490 1491 1492 1493 1494 1495 1497
1442 1443 1444 1446 1447 1449 1451 1451 1452 1453 1453 1454 1454 1454 1455 1455 1456 1457 1458 1459 1460 1462 1463 1464 1465 1467 1468 1470 1471 1473 1475 1476 1478 1479 1481 1483 1484 1486 1487 1488 1489 1490 1491 1493
1439 1441 1442 1443 1444 1446 1447 1448 1449 1449 1450 1450 1450 1451 1452 1452 1453 1454 1455 1455 1456 1458 1459 1461 1462 1463 1465 1466 1468 1469 1471 1472 1474 1476 1477 1478 1480 1481 1483 1484 1485 1486 1487 1488
1438 1439 1440 1441 1442 1443 1444 1445 1446 1446 1446 1447 1447 1448 1448 1449 1450 1450 1451 1452 1453 1455 1456 1457 1459 1460 1461 1462 1464 1465 1467 1468 1470 1471 1472 1474 1475 1477 1478 1479 1480 1481 1483 1484
1436 1437 1437 1438 1439 1440 1441 1442 1443 1443 1444 1444 1445 1445 1446 1446 1447 1448 1449 1449 1450 1451 1453 1454 1455 1456 1458 1458 1460 1461 1463 1464 1466 1467 1468 1470 1471 1472 1473 1475 1476 1477 1478 1479
1433 1434 1435 1436 1437 1438 1438 1439 1440 1440 1441 1441 1442 1442 1443 1444 1444 1445 1445 1446 1447 1448 1449 1451 1452 1453 1454 1455 1456 1458 1459 1460 1462 1463 1464 1465 1466 1468 1469 1470 1471 1472 1474 1475
1431 1432 1432 1433 1434 1435 1435 1436 1436 1437 1438 1438 1438 1439 1439 1440 1441 1441 1442 1443 1444 1445 1446 1447 1448 1449 1450 1451 1453 1454 1455 1456 1458 1459 1460 1461 1462 1463 1464 1465 1467 1468 1469 1470
1429 1429 1430 1430 1431 1432 1432 1432 1433 1433 1434 1434 1434 1435 1436 1436 1437 1438 1439 1440 1441 1442 1443 1444 1445 1446 1447 1448 1449 1450 1451 1452 1453 1454 1455 1456 1457 1458 1460 1461 1462 1464 1465 1466